TimeAKST,TemperatureF,Dew PointF,Humidity,Sea Level PressureIn,VisibilityMPH,Wind Direction,Wind SpeedMPH,Gust SpeedMPH,PrecipitationIn,Events,Conditions,WindDirDegrees,DateUTC
12:16 AM,-11.2,-20.2,64,29.79,10.0,Calm,Calm,-,N/A,,Overcast,0,2013-02-25 09:16:00
12:36 AM,-11.2,-23.8,54,29.79,10.0,Calm,Calm,-,N/A,,Overcast,0,2013-02-25 09:36:00
12:56 AM,-11.2,-20.2,64,29.80,10.0,Calm,Calm,-,N/A,,Overcast,0,2013-02-25 09:56:00
1:16 AM,-11.2,-22.0,59,29.80,10.0,Calm,Calm,-,N/A,,Mostly Cloudy,0,2013-02-25 10:16:00
1:36 AM,-11.2,-20.2,64,29.81,9.0,Calm,Calm,-,N/A,,Overcast,0,2013-02-25 10:36:00
1:56 AM,-11.2,-20.2,64,29.81,10.0,Calm,Calm,-,N/A,,Overcast,0,2013-02-25 10:56:00
2:16 AM,-11.2,-23.8,54,29.82,10.0,Calm,Calm,-,N/A,,Overcast,0,2013-02-25 11:16:00
2:36 AM,-11.2,-16.6,77,29.82,10.0,Calm,Calm,-,N/A,,Overcast,0,2013-02-25 11:36:00
2:56 AM,-11.2,-23.8,54,29.83,10.0,Calm,Calm,-,N/A,,Overcast,0,2013-02-25 11:56:00
3:16 AM,-13.0,-20.2,70,29.83,7.0,West,3.5,-,N/A,,Mostly Cloudy,280,2013-02-25 12:16:00
3:36 AM,-11.2,-20.2,64,29.83,7.0,Calm,Calm,-,N/A,,Overcast,0,2013-02-25 12:36:00
3:56 AM,-9.4,-18.4,65,29.83,5.0,NNW,3.5,-,N/A,,Overcast,330,2013-02-25 12:56:00
4:16 AM,-9.4,-18.4,65,29.83,10.0,Calm,Calm,-,N/A,,Overcast,0,2013-02-25 13:16:00
4:36 AM,-9.4,-20.2,59,29.83,4.0,Calm,Calm,-,N/A,,Overcast,0,2013-02-25 13:36:00
4:56 AM,-11.2,-18.4,70,29.83,4.0,Calm,Calm,-,N/A,,Overcast,0,2013-02-25 13:56:00
5:16 AM,-9.4,-18.4,65,29.83,5.0,Calm,Calm,-,N/A,,Overcast,0,2013-02-25 14:16:00
5:36 AM,-9.4,-20.2,59,29.84,6.0,Calm,Calm,-,N/A,,Overcast,0,2013-02-25 14:36:00
5:56 AM,-9.4,-18.4,65,29.84,5.0,Calm,Calm,-,N/A,,Overcast,0,2013-02-25 14:56:00
6:16 AM,-11.2,-18.4,70,29.84,9.0,Calm,Calm,-,N/A,,Overcast,0,2013-02-25 15:16:00
6:36 AM,-11.2,-18.4,70,29.84,8.0,Calm,Calm,-,N/A,,Overcast,0,2013-02-25 15:36:00
6:56 AM,-11.2,-18.4,70,29.84,10.0,Calm,Calm,-,N/A,,Overcast,0,2013-02-25 15:56:00
7:16 AM,-11.2,-20.2,64,29.85,3.0,Calm,Calm,-,N/A,,Mostly Cloudy,0,2013-02-25 16:16:00
7:36 AM,-11.2,-18.4,70,29.85,2.5,Calm,Calm,-,N/A,,Overcast,0,2013-02-25 16:36:00
7:56 AM,-11.2,-18.4,70,29.85,3.0,Calm,Calm,-,N/A,,Overcast,0,2013-02-25 16:56:00
8:16 AM,-11.2,-20.2,64,29.86,5.0,SW,3.5,-,N/A,,Overcast,230,2013-02-25 17:16:00
8:36 AM,-11.2,-18.4,70,29.87,5.0,SW,3.5,-,N/A,,Overcast,220,2013-02-25 17:36:00
8:56 AM,-11.2,-20.2,64,29.87,5.0,Calm,Calm,-,N/A,,Overcast,0,2013-02-25 17:56:00
9:16 AM,-11.2,-18.4,70,29.87,4.0,Calm,Calm,-,N/A,,Overcast,0,2013-02-25 18:16:00
9:36 AM,-11.2,-18.4,70,29.87,4.0,Calm,Calm,-,N/A,,Overcast,0,2013-02-25 18:36:00
9:56 AM,-11.2,-18.4,70,29.88,3.0,Calm,Calm,-,N/A,,Overcast,0,2013-02-25 18:56:00
10:16 AM,-9.4,-16.6,71,29.88,3.0,Calm,Calm,-,N/A,,Overcast,0,2013-02-25 19:16:00
10:36 AM,-9.4,-20.2,59,29.89,2.5,SSW,3.5,-,N/A,,Overcast,200,2013-02-25 19:36:00
10:56 AM,-11.2,-20.2,64,29.89,4.0,SSW,3.5,-,N/A,,Overcast,200,2013-02-25 19:56:00
11:16 AM,-9.4,-18.4,65,29.89,5.0,South,4.6,-,N/A,,Overcast,190,2013-02-25 20:16:00
11:36 AM,-11.2,-20.2,64,29.90,9.0,SSW,3.5,-,N/A,,Mostly Cloudy,200,2013-02-25 20:36:00
11:56 AM,-11.2,-18.4,70,29.91,10.0,Calm,Calm,-,N/A,,Partly Cloudy,0,2013-02-25 20:56:00
12:16 PM,-11.2,-20.2,64,29.91,5.0,SSW,3.5,-,N/A,,Mostly Cloudy,210,2013-02-25 21:16:00
12:36 PM,-9.4,-16.6,71,29.92,2.0,Calm,Calm,-,N/A,,Overcast,0,2013-02-25 21:36:00
12:56 PM,-9.4,-18.4,65,29.93,1.2,SSW,3.5,-,N/A,,Overcast,200,2013-02-25 21:56:00
1:16 PM,-9.4,-18.4,65,29.92,5.0,Calm,Calm,-,N/A,,Mostly Cloudy,0,2013-02-25 22:16:00
1:36 PM,-9.4,-16.6,71,29.93,9.0,Calm,Calm,-,N/A,,Mostly Cloudy,0,2013-02-25 22:36:00
1:56 PM,-9.4,-18.4,65,29.94,2.5,South,5.8,-,N/A,,Overcast,190,2013-02-25 22:56:00
2:16 PM,-9.4,-18.4,65,29.95,2.5,SW,5.8,-,N/A,,Overcast,220,2013-02-25 23:16:00
2:36 PM,-9.4,-20.2,59,29.94,9.0,Calm,Calm,-,N/A,,Overcast,0,2013-02-25 23:36:00
2:56 PM,-7.6,-14.8,71,29.94,4.0,WSW,4.6,-,N/A,,Overcast,240,2013-02-25 23:56:00
3:36 PM,-9.4,-16.6,71,29.95,1.5,West,9.2,-,N/A,,Overcast,270,2013-02-26 00:36:00
3:56 PM,-11.2,-23.8,54,29.95,2.5,West,8.1,-,N/A,,Overcast,280,2013-02-26 00:56:00
4:16 PM,-11.2,-18.4,70,29.96,1.8,WNW,5.8,-,N/A,,Overcast,290,2013-02-26 01:16:00
4:56 PM,-9.4,-18.4,65,29.97,1.5,Calm,Calm,-,N/A,,Overcast,0,2013-02-26 01:56:00
5:16 PM,-9.4,-18.4,65,29.98,1.8,SSW,4.6,-,N/A,,Overcast,200,2013-02-26 02:16:00
5:36 PM,-11.2,-20.2,64,29.98,2.5,West,6.9,-,N/A,,Overcast,270,2013-02-26 02:36:00
5:56 PM,-11.2,-23.8,54,29.99,6.0,WSW,6.9,-,N/A,,Overcast,250,2013-02-26 02:56:00
6:16 PM,-11.2,-20.2,64,30.00,7.0,SW,4.6,-,N/A,,Mostly Cloudy,230,2013-02-26 03:16:00
6:36 PM,-11.2,-23.8,54,30.01,5.0,West,11.5,-,N/A,,Mostly Cloudy,270,2013-02-26 03:36:00
6:56 PM,-13.0,-23.8,59,30.02,3.0,WNW,8.1,-,N/A,,Overcast,290,2013-02-26 03:56:00
7:16 PM,-9999,-9999,N/A,30.01,1.8,West,5.8,-,N/A,,Overcast,280,2013-02-26 04:16:00
7:36 PM,-13.0,-22.0,64,30.02,2.5,West,8.1,-,N/A,,Overcast,270,2013-02-26 04:36:00
7:56 PM,-14.8,-23.8,64,30.04,3.0,West,8.1,-,N/A,,Overcast,280,2013-02-26 04:56:00
8:16 PM,-14.8,-23.8,64,30.03,3.0,WNW,5.8,-,N/A,,Overcast,290,2013-02-26 05:16:00
8:56 PM,-16.6,-25.6,64,30.04,10.0,SSW,5.8,-,N/A,,Clear,210,2013-02-26 05:56:00
9:16 PM,-18.4,-9999,N/A,30.04,10.0,WSW,6.9,-,N/A,,Clear,250,2013-02-26 06:16:00
9:36 PM,-20.2,-29.2,63,30.04,10.0,West,4.6,-,N/A,,Clear,280,2013-02-26 06:36:00
9:56 PM,-20.2,-9999,N/A,30.04,10.0,NNW,3.5,-,N/A,,Clear,340,2013-02-26 06:56:00
10:16 PM,-20.2,-29.2,63,30.06,10.0,Calm,Calm,-,N/A,,Clear,0,2013-02-26 07:16:00
10:36 PM,-20.2,-9999,N/A,30.06,10.0,Calm,Calm,-,N/A,,Clear,0,2013-02-26 07:36:00
10:56 PM,-20.2,-9999,N/A,30.07,10.0,Calm,Calm,-,N/A,,Clear,0,2013-02-26 07:56:00
11:36 PM,-22.0,-9999,N/A,30.08,10.0,Calm,Calm,-,N/A,,Clear,0,2013-02-26 08:36:00
11:56 PM,-25.6,-9999,N/A,30.09,10.0,Calm,Calm,-,N/A,,Clear,0,2013-02-26 08:56:00